Location: Peach Mountain Observatory
(42.3967°N, 83.9367°W)
Time: 21:05:19
(UTC-05:00)

S-56A Canister/Altair - Pass Details

Date: 01 February 2020
Orbit: 633 x 2500 km, 38.9° (Epoch: 26 February)

Event Time Altitude Azimuth Distance (km) Brightness Sun altitude
Rises 00:28:39 0° 272° (W) 3,274 - -64.5°
Reaches altitude 10° 00:32:26 10° 246° (WSW) 2,138 - -64.6°
Maximum altitude 00:34:46 14° 216° (SW) 1,824 - -64.7°
Drops below altitude 10° 00:37:00 10° 186° (S) 2,007 - -64.7°
Sets 00:40:20 0° 159° (SSE) 2,919 - -64.8°
